Location: Gouy
(50.0008°N, 3.2556°E)
Time: 07:33:51
(UTC+00:00)

Cosmos 1703 Rocket - Pass Details

Date: 13 October 2024
Orbit: 600 x 629 km, 82.5° (Epoch: 03 November)

Event Time Altitude Azimuth Distance (km) Brightness Sun altitude
Rises 18:26:43 0° 343° (NNW) 2,883 7.3 -14.9°
Reaches altitude 10° 18:29:05 10° 334° (NNW) 1,969 6.5 -15.2°
Maximum altitude 18:33:02 35° 269° (W) 979 5.3 -15.9°
Drops below altitude 10° 18:36:57 10° 203° (SSW) 1,942 6.3 -16.5°
Sets 18:39:16 0° 195° (SSW) 2,838 7.1 -16.9°
